Regional Weather Roundup
Issued by NWS

Home | Current Version | Previous Version | Graphics & Text | Print | Product List | Glossary On
Versions: 1 2 3 4 5 6 7 8 9 10 11 12 13 14 15 16 17 18 19 20 21 22 23 24 25 26 27 28 29 30 31 32 33 34 35 36 37 38 39 40 41 42 43 44 45 46 47 48 49 50
454
ASUS43 KIND 202200
RWRIN

WEATHER ROUNDUP FOR INDIANA
NATIONAL WEATHER SERVICE INDIANAPOLIS IN
600 PM EDT THU JUL 20 2017

NOTE: "FAIR" INDICATES FEW OR NO CLOUDS BELOW 12,000 FEET WITH NO
SIGNIFICANT WEATHER AND/OR OBSTRUCTIONS TO VISIBILITY.

* - STATION DOES NOT REPORT WEATHER SUCH AS PRECIPITATION OR FOG.

+ - STATION NOT QUALITY CONTROLLED BY THE NATIONAL WEATHER SERVICE.
    USE DATA WITH CAUTION...ESPECIALLY DEWPOINT AND RELATIVE
    HUMIDITY OBSERVATIONS.

INZ001>003-010>013-019-020-202300-
NORTHWEST INDIANA

CITY           SKY/WX    TMP DP  RH WIND       PRES   REMARKS
KNOX *+        MOSUNNY   86  75  70 W7        29.96S HX  95
MICHIGAN CITY+ CLOUDY    79  70  73 CALM      29.98S
MONTICELLO +   CLOUDY    85  76  74 SW8       29.96S
RENSSELAER +   CLOUDY    84  75  74 W5        29.96S

$$

LMZ046-743>745-202300-
SOUTHERN LAKE MICHIGAN

STATION/POSITION TIME  TEMP    WIND        PRES    WAVE
                       AIR SEA DIR/SP/G            HT
                 (UTC) (F)     (DEG/KT/KT) (MB)    (FT)
BURNS HARBOR     2140   75      70/  9/ 11 1015.2R
MICHIGAN CITY    2130   76      40/ 13/ 13   N/A
5NW MICH CITY    2150   75 74   70/  8/ 10   N/A     1

$$

INZ004-005-014>016-021>024-202300-
NORTH CENTRAL INDIANA

CITY           SKY/WX    TMP DP  RH WIND       PRES   REMARKS
ELKHART        MOSUNNY   86  73  66 NW6       29.97F
GOSHEN         CLOUDY    84  72  67 W5        29.97S
SOUTH BEND     PTSUNNY   87  74  64 N12       29.97F HX  95
WARSAW +       CLOUDY    82  75  78 CALM      29.97S

$$

INZ006>009-017-018-025>027-202300-
NORTHEAST INDIANA

CITY           SKY/WX    TMP DP  RH WIND       PRES   REMARKS
ANGOLA *+      CLOUDY    84  81  89 SW7       29.98F HX  98
FORT WAYNE     PTSUNNY   87  72  60 W7        29.98F
KENDALLVILLE + CLOUDY   N/A N/A N/A SW5       30.00S

$$

INZ028-029-035-036-043>045-051>053-202300-
WEST CENTRAL INDIANA

CITY           SKY/WX    TMP DP  RH WIND       PRES   REMARKS
GREENCASTLE +  CLOUDY    86  77  74 CALM      30.01S HX  97
LAFAYETTE      PTSUNNY   85  77  77 SW6       29.95F HX  95
TERRE HAUTE    CLOUDY    90  74  59 SW9       29.98F HX  99

$$

INZ030>032-037>040-046>048-054>057-064-065-202300-
CENTRAL INDIANA

CITY           SKY/WX    TMP DP  RH WIND       PRES   REMARKS
COLUMBUS       SUNNY     88  72  58 SW9       30.00F
FRANKFORT +    PTSUNNY   90  78  69 W10G16    30.00F HX 104
GREENWOOD *+   MOSUNNY   88  75  65 SW5       30.01S HX  97
INDIANAPOLIS   PTSUNNY   89  76  65 SW10      29.98F HX 100
-EAGLE CREEK   MOSUNNY   89  75  63 VRB7      29.99S HX  99
KOKOMO +       MOSUNNY   88  75  65 W9        29.99S HX  97
MT COMFORT *+  PTSUNNY   88  75  66 SW9       30.01S HX  97
SHELBYVILLE    CLOUDY    90  75  61 W8        29.99F HX 100

$$

INZ033-034-041-042-049-050-058-059-202300-
EAST CENTRAL INDIANA

CITY           SKY/WX    TMP DP  RH WIND       PRES   REMARKS
MUNCIE         MOSUNNY   90  72  55 W12       29.99F HX  97
RICHMOND +     CLOUDY    82  77  83 SW6       30.03F

$$

INZ060-061-067>069-081>083-085>088-202300-
SOUTHWEST INDIANA

CITY           SKY/WX    TMP DP  RH WIND       PRES   REMARKS
EVANSVILLE     PTSUNNY   94  69  44 SW9       30.01F HX  99
HUNTINGBURG *+ PTSUNNY   91  77  63 S13       30.01F HX 104

$$

INZ062-063-066-070>080-084-089>092-202300-
SOUTH CENTRAL AND SOUTHEAST INDIANA

CITY           SKY/WX    TMP DP  RH WIND       PRES   REMARKS
BLOOMINGTON    MOSUNNY   89  76  65 SW8       30.01F HX 100
MADISON *+     MOSUNNY   90  68  48 SW9       30.03S
SEYMOUR +      CLOUDY    88  73  62 SW6       30.00F HX  96

$$





USA.gov is the U.S. government's official web portal to all federal, state and local government web resources and services.